Weather History for KBHK - November, 2013

Change the Weather History Date:

Wednesday, November 27, 2013

  Actual Average Record
Temperature  
Mean Temperature 26 °F -  
Max Temperature 37 °F 38 °F 54 °F (2011)
Min Temperature 14 °F 28 °F 6 °F (2001)
Degree Days  
Heating Degree Days 38    
Moisture  
Dew Point 19 °F    
Average Humidity 72    
Maximum Humidity 88    
Minimum Humidity 55    
Precipitation  
Precipitation 0.00 in - - ()
Sea Level Pressure  
Sea Level Pressure 30.13 in    
Wind  
Wind Speed 9 mph (NW)    
Max Wind Speed 22 mph    
Max Gust Speed 28 mph    
Visibility 10 miles    
Events      
Averages and records for this station are not official NWS values.
T = Trace of Precipitation, MM = Missing Value Source: NWS Daily Summary

Daily Weather History Graph

Daily Weather History Graph

Search for Another Location

Airport or City:

Trip Planner

Search our weather history database for the weather conditions in past years. The results will help you decide how hot, cold, wet, or windy it might be!

Date:

Astronomy

Nov. 27, 2013 Rise Set
Actual Time 7:15 AM MST 4:14 PM MST
Civil Twilight 6:41 AM MST 4:47 PM MST
Nautical Twilight 6:03 AM MST 5:25 PM MST
Astronomical Twilight 5:27 AM MST 6:01 PM MST
Moon 1:00 AM MST (11/27) 1:09 PM MST (11/27)
Length of Visible Light 10h 06m
Length of Day
8h 58m
Waning Crescent, 31% of the Moon is Illuminated
Nov 27
Waning Crescent
Dec 2
New
Dec 9
First Quarter
Dec 17
Full
Dec 25
Last Quarter

Hourly Weather History & Observations

Time (MST) Temp. Windchill Dew Point Humidity Pressure Visibility Wind Dir Wind Speed Gust Speed Precip Events Conditions
12:51 AM 24.1 °F 13.7 °F 16.0 °F 71% 30.13 in 10.0 mi SE 10.4 mph - N/A   Clear
1:51 AM 23.0 °F 15.8 °F 16.0 °F 74% 30.11 in 10.0 mi ESE 5.8 mph - N/A   Clear
2:51 AM 21.9 °F 14.5 °F 16.0 °F 78% 30.06 in 10.0 mi ESE 5.8 mph - N/A   Clear
3:51 AM 21.0 °F 12.4 °F 16.0 °F 81% 30.04 in 10.0 mi SE 6.9 mph - N/A   Clear
4:51 AM 21.0 °F 16.2 °F 17.1 °F 85% 30.04 in 10.0 mi SE 3.5 mph - N/A   Clear
5:51 AM 23.0 °F - 18.0 °F 81% 30.03 in 10.0 mi Calm Calm - N/A   Clear
6:51 AM 32.0 °F 23.0 °F 21.9 °F 66% 30.01 in 10.0 mi West 11.5 mph - N/A   Clear
7:51 AM 34.0 °F 25.0 °F 23.0 °F 64% 30.01 in 10.0 mi West 12.7 mph - N/A   Clear
8:51 AM 34.0 °F 25.0 °F 23.0 °F 64% 30.02 in 10.0 mi WNW 12.7 mph - N/A   Clear
9:51 AM 37.0 °F 27.0 °F 24.1 °F 59% 30.05 in 10.0 mi WNW 18.4 mph - N/A   Clear
10:51 AM 37.0 °F 26.2 °F 24.1 °F 59% 30.06 in 10.0 mi NW 21.9 mph 27.6 mph N/A   Clear
11:51 AM 37.0 °F 26.2 °F 23.0 °F 57% 30.09 in 10.0 mi NW 21.9 mph - N/A   Clear
12:51 PM 37.9 °F 29.2 °F 23.0 °F 55% 30.09 in 10.0 mi NW 15.0 mph - N/A   Clear
1:51 PM 37.9 °F 30.5 °F 23.0 °F 55% 30.12 in 10.0 mi NW 11.5 mph - N/A   Clear
2:51 PM 36.0 °F 25.3 °F 21.0 °F 55% 30.14 in 10.0 mi NNW 19.6 mph - N/A   Clear
3:51 PM 33.1 °F 25.5 °F 21.0 °F 61% 30.18 in 10.0 mi NW 9.2 mph - N/A   Clear
4:51 PM 28.9 °F 19.2 °F 21.0 °F 72% 30.21 in 10.0 mi NW 11.5 mph - N/A   Clear
5:51 PM 27.0 °F 17.3 °F 19.9 °F 75% 30.23 in 10.0 mi NW 10.4 mph - N/A   Clear
6:51 PM 25.0 °F 14.8 °F 19.9 °F 81% 30.23 in 10.0 mi NW 10.4 mph - N/A   Clear
7:51 PM 21.0 °F 14.6 °F 18.0 °F 88% 30.25 in 10.0 mi NNW 4.6 mph - N/A   Clear
8:51 PM 19.0 °F 12.3 °F 16.0 °F 88% 30.26 in 10.0 mi WNW 4.6 mph - N/A   Clear
9:51 PM 19.9 °F - 16.0 °F 85% 30.27 in 10.0 mi Calm Calm - N/A   Clear
10:51 PM 16.0 °F - 12.0 °F 84% 30.29 in 10.0 mi Calm Calm - N/A   Clear
11:51 PM 14.0 °F - 10.0 °F 84% 30.30 in 10.0 mi Calm Calm - N/A   Clear